Location: Unspecified
(51.0950°N, 12.9690°E)
Time: 23:42:35
(UTC+00:00)

First-Move - Pass Details

Date: 25 April 2024
Orbit: 539 x 600 km, 97.7° (Epoch: 17 May)

Event Time Altitude Azimuth Distance (km) Brightness Sun altitude
Rises 02:25:55 0° 16° (NNE) 2,869 ? -12.4°
Reaches altitude 10° 02:28:08 10° 21° (NNE) 1,965 ? -12.1°
Maximum altitude 02:32:21 58° 101° (E) 716 ? -11.6°
Drops below altitude 10° 02:36:33 10° 180° (S) 1,951 ? -11.1°
Enters shadow 02:37:50 - 183° (S) 2,473 ? -10.9°
